Vertical_Velocity
3 4 -9 14 -4 3 2 1 6 -2 1 1 0 -2 1 -1 -2 -0 0 -0 -1 1 -2 -1 -2 -1 -1 -2 0 2 1 -1 0 -1 -0 -0 -1 -1 0 1 1 -1 -1
2 3 6 4 -2 8 -4 7 -9 3 1 0 -1 -0 -1 -3 0 -1 -1 -0 -1 -1 -2 -2 -1 -1 -1 -1 -2 -1 -1 -2 -0 -1 0 -1 -1 -1 -1 -1 -1 -1 -1
2 3 3 2 -7 0 1 -1 -11 4 0 -1 1 -2 -2 1 0 -0 1 0 -2 -2 -2 -3 -3 -2 -1 -2 -2 -2 -2 -1 -2 -1 -1 -1 0 0 -1 -1 -0 -0 -1
5 3 -0 0 0 -2 -3 -4 3 2 -2 -0 1 -1 1 -1 0 1 1 1 0 -0 -1 -2 -2 -2 -2 -2 -1 -1 -1 -1 -0 -1 -1 -2 -2 -1 -1 -2 -1 -3 -2
0 1 -1 -3 -2 -4 -2 -2 1 2 1 0 -1 1 -1 -1 -1 -2 -1 -0 -1 -1 -1 -1 -2 -0 -0 -1 -2 -1 -0 -1 -1 -2 -2 -1 -2 -1 -1 -1 -1 -2 1
-0 -2 -2 -2 -2 1 3 2 1 0 1 2 2 1 -0 -0 -1 -1 -1 -1 -1 -1 -0 0 -0 -1 -0 -1 -1 -2 -2 -1 -1 -1 -0 -0 -0 -1 -0 -1 -0 -1 -5
1 2 1 -1 0 2 2 1 1 2 0 0 0 1 -0 -1 -1 -1 -1 -1 -1 -1 -1 -1 -1 -0 -1 -0 -1 -2 -1 -1 -2 -1 1 1 -1 0 -3 -1 -0 -2 -1
1 0 1 1 1 1 1 2 1 1 1 -0 -1 -1 -1 -2 -1 -1 0 -1 -0 -1 -2 -1 -1 -1 -1 -1 -1 -2 -2 -2 -2 -1 -2 -1 -1 1 -0 0 -1 -1 -2
0 -1 -1 1 0 -1 -1 -1 0 -0 -1 -1 -1 -2 -0 -1 0 -2 -1 -2 -1 -0 -1 -2 -1 -1 -2 -1 -1 -1 -1 0 -2 -1 -1 -0 -0 0 -0 -1 -3 1 -4
-2 -1 -0 1 1 -0 1 -2 -2 1 1 -0 -0 -1 -0 1 -1 -2 -1 -3 -1 0 1 -0 -0 -0 -1 -1 -1 -1 -3 0 -2 -0 -0 -2 -2 -1 -1 0 -2 -2 -2
1 -0 1 1 1 1 0 -1 -1 -2 -2 -2 -2 -2 -1 -1 -1 -0 -1 -1 -0 -1 -1 -2 -2 -1 0 0 0 -3 -3 -1 -1 -1 -1 -0 0 -0 -2 -0 2 2 -1
-1 -1 1 1 -2 -0 1 -3 -2 -0 -0 -1 -2 -2 -0 1 1 -0 -0 -1 0 -1 -0 0 0 0 -0 -1 -0 0 -1 2 -1 -1 -1 -1 -0 -1 0 1 -0 1 3
-1 -1 1 1 0 0 -2 -0 -2 -1 -1 -1 -1 0 0 -1 -0 0 1 1 -1 -3 -1 0 1 -0 -1 -2 -0 1 0 -2 -2 -2 -1 -2 -1 -0 -1 -1 1 1 1
-1 -1 -2 0 -0 1 1 0 -0 -0 -1 -1 -2 -1 -0 -1 -2 -2 -1 -0 -0 -1 -1 -0 -0 -1 -1 -1 -1 -2 -1 -0 -0 -0 -1 -1 -2 -3 -2 -0 -2 -4 -2
-0 -1 -2 2 0 0 -1 -1 -1 -0 -0 -0 0 0 -2 -5 1 1 1 -0 -0 0 0 -0 -1 -0 0 -1 -1 -2 -4 -3 -2 -2 -2 -1 -2 -2 -3 -0 -0 -1 0
0 1 1 -1 -3 -1 -1 -1 -0 0 2 -1 -2 -0 1 -0 -1 -1 -2 -2 -1 -0 0 -2 -2 -3 -2 0 1 -1 -1 1 1 0 -1 -1 -2 -1 -1 -3 -1 -1 -0
-0 -0 -3 -1 -2 -2 -2 -1 -0 -0 -0 -1 -0 -1 -2 1 -2 -2 -1 -1 -1 -0 3 1 -0 -1 -1 -2 -2 -2 -3 -2 -1 -2 -1 -1 -1 -1 1 -1 -1 0 -3
-0 1 -1 0 -0 -1 -1 -1 0 -1 -1 -1 -1 -1 -0 -0 0 -1 -2 1 1 1 -1 -2 -1 -1 -2 -2 -2 -1 -0 -0 1 0 -1 0 -0 0 -2 -2 -0 -1 -1
0 -0 0 0 -0 1 1 1 -0 -2 -2 0 1 -0 -0 0 -0 1 0 2 -1 -1 -1 -1 -1 -1 0 2 1 1 0 -1 -1 -2 -0 0 0 1 -2 -0 -1 0 1
-0 1 1 -0 2 -0 0 -0 -0 -0 0 -1 -2 -5 1 2 -2 -3 -1 -1 -1 -1 -1 -0 0 0 -1 -1 -1 -1 -1 -0 -1 0 -0 0 1 1 -0 0 0 -2 -1
2 2 0 0 -1 0 -1 -2 0 1 -1 -1 -1 2 1 -2 1 -0 0 0 1 1 -0 0 0 0 -0 -1 -1 -1 -1 -2 -1 0 -0 -0 0 -2 1 -0 -1 -1 -1
0 1 1 -5 1 -1 -0 1 -0 -0 -1 -1 -0 0 3 1 -3 -3 -1 -1 -0 -0 1 0 -1 -1 -1 -0 1 0 -1 -3 -1 1 -1 -0 0 -0 0 -1 -1 -1 -0
-1 -0 1 -0 -2 2 -1 -1 -1 -1 -1 -1 -1 -2 -0 -0 1 -2 -2 -1 -1 -2 -1 -2 -2 -2 0 1 2 1 -1 -2 1 2 -1 1 0 -1 1 -1 0 -1 -0
-1 -1 -1 2 -0 -2 -1 1 0 0 -0 -1 -1 -1 -2 -1 -1 -1 0 1 -0 -0 0 0 -0 -1 0 0 1 0 -1 -0 1 -1 1 -1 -3 0 1 0 1 -0 0
1 -1 -0 -1 1 0 2 -1 -1 -1 0 -1 -2 -1 -1 -0 -2 -2 -1 1 -0 -0 -1 -0 -1 -1 -1 -0 -1 -0 1 1 -1 -2 -1 2 1 3 1 1 0 -1 -1
1 1 -0 0 -1 1 0 -1 -0 0 -1 0 1 -1 -1 -1 -1 -1 -1 -1 -1 -1 -1 -1 0 0 1 0 -1 1 0 -0 -0 1 3 1 -1 -2 0 -4 -2 -1 -1
Height
1482 1487 1492 1497 1504 1508 1517 1522 1528 1533 1539 1543 1548 1553 1557 1559 1562 1565 1568 1569 1572 1574 1576 1579 1581 1583 1585 1586 1588 1589 1590 1591 1593 1594 1596 1597 1598 1599 1600 1600 1599 1599 1599
1482 1487 1493 1497 1503 1508 1514 1519 1528 1533 1538 1544 1548 1552 1554 1558 1561 1564 1567 1569 1572 1574 1576 1579 1581 1583 1584 1586 1587 1589 1590 1590 1592 1593 1594 1595 1596 1597 1597 1598 1598 1597 1597
1484 1489 1494 1500 1505 1511 1515 1521 1529 1535 1539 1544 1547 1550 1554 1557 1560 1563 1567 1569 1572 1574 1577 1579 1581 1583 1584 1585 1586 1587 1589 1589 1590 1591 1592 1593 1594 1594 1595 1595 1595 1595 1594
1488 1493 1498 1503 1509 1514 1519 1525 1532 1536 1539 1543 1546 1550 1554 1557 1561 1564 1566 1569 1571 1574 1576 1578 1579 1581 1582 1583 1585 1586 1587 1588 1589 1590 1590 1591 1592 1593 1593 1593 1593 1592 1592
1492 1496 1501 1506 1511 1516 1522 1528 1533 1536 1540 1544 1547 1551 1554 1558 1561 1564 1567 1569 1571 1573 1574 1576 1578 1579 1580 1582 1583 1585 1586 1586 1587 1588 1589 1589 1590 1590 1590 1590 1589 1589 1589
1495 1499 1504 1508 1514 1520 1525 1529 1533 1536 1541 1544 1548 1551 1554 1558 1561 1563 1566 1568 1570 1572 1574 1575 1577 1579 1580 1581 1582 1584 1585 1585 1586 1587 1587 1587 1588 1588 1587 1587 1587 1586 1586
1499 1503 1507 1511 1516 1522 1526 1530 1534 1537 1541 1545 1548 1552 1555 1558 1560 1562 1564 1567 1569 1571 1573 1575 1576 1578 1579 1581 1581 1582 1583 1583 1584 1585 1585 1586 1585 1585 1585 1584 1584 1583 1583
1503 1506 1511 1515 1518 1523 1527 1531 1534 1538 1542 1545 1549 1552 1555 1557 1559 1561 1563 1566 1568 1570 1572 1574 1576 1577 1578 1578 1579 1580 1581 1581 1582 1582 1582 1582 1582 1582 1582 1581 1580 1579 1579
1505 1509 1513 1516 1519 1523 1527 1531 1535 1539 1542 1546 1549 1551 1554 1556 1558 1559 1562 1565 1567 1569 1571 1573 1574 1575 1575 1576 1577 1577 1578 1578 1579 1579 1579 1578 1578 1578 1578 1577 1576 1575 1573
1507 1510 1514 1517 1520 1523 1527 1531 1536 1540 1543 1546 1548 1550 1553 1555 1557 1559 1561 1564 1567 1568 1569 1570 1571 1572 1572 1573 1573 1574 1574 1575 1575 1575 1575 1574 1575 1574 1574 1573 1572 1570 1570
1508 1511 1514 1517 1520 1524 1527 1531 1535 1538 1542 1545 1547 1549 1551 1554 1556 1558 1560 1562 1564 1565 1566 1567 1568 1568 1569 1569 1570 1569 1570 1570 1570 1570 1570 1570 1570 1569 1569 1569 1568 1568 1566
1507 1510 1513 1516 1520 1523 1526 1530 1533 1537 1540 1543 1545 1548 1550 1552 1554 1556 1558 1559 1560 1562 1563 1564 1564 1565 1565 1565 1566 1566 1566 1567 1566 1565 1565 1565 1565 1564 1564 1564 1563 1562 1562
1507 1510 1513 1516 1519 1522 1525 1528 1531 1535 1538 1540 1543 1545 1547 1549 1551 1553 1554 1556 1557 1558 1559 1560 1560 1560 1560 1561 1561 1561 1561 1561 1561 1560 1560 1560 1559 1559 1558 1557 1557 1557 1555
1507 1509 1512 1514 1517 1521 1523 1526 1529 1532 1534 1537 1539 1541 1543 1546 1548 1549 1550 1551 1553 1554 1555 1555 1555 1556 1556 1556 1556 1557 1557 1557 1556 1556 1555 1554 1553 1553 1552 1552 1551 1550 1548
1506 1508 1510 1513 1515 1518 1520 1523 1526 1529 1531 1533 1535 1538 1539 1541 1544 1544 1545 1546 1548 1549 1549 1550 1550 1551 1551 1551 1552 1552 1552 1552 1551 1551 1550 1549 1548 1547 1546 1546 1545 1543 1541
1504 1506 1508 1509 1512 1515 1517 1520 1522 1525 1527 1529 1531 1533 1535 1537 1538 1539 1540 1541 1543 1544 1544 1544 1545 1546 1546 1547 1547 1547 1547 1546 1546 1545 1543 1542 1541 1540 1538 1538 1537 1535 1533
1501 1503 1505 1507 1509 1511 1513 1516 1518 1521 1523 1525 1527 1529 1531 1533 1533 1535 1536 1537 1537 1540 1539 1540 1540 1540 1540 1540 1540 1540 1540 1539 1539 1537 1536 1535 1534 1532 1531 1530 1529 1527 1525
1499 1501 1503 1505 1507 1509 1511 1513 1515 1517 1518 1520 1522 1524 1526 1527 1528 1529 1531 1533 1533 1533 1532 1533 1533 1534 1534 1534 1533 1533 1532 1531 1531 1530 1529 1528 1527 1525 1523 1522 1521 1520 1518
1495 1497 1500 1502 1504 1506 1507 1509 1510 1512 1513 1515 1517 1519 1520 1522 1523 1525 1526 1526 1525 1526 1526 1526 1526 1527 1527 1527 1526 1526 1525 1524 1523 1522 1521 1521 1520 1518 1517 1516 1514 1514 1513
1492 1494 1496 1498 1500 1501 1502 1504 1506 1507 1509 1510 1511 1512 1515 1516 1515 1516 1517 1518 1518 1518 1518 1519 1519 1519 1519 1519 1519 1518 1518 1517 1517 1516 1515 1514 1513 1512 1510 1509 1508 1506 1504
1488 1490 1491 1492 1494 1496 1497 1499 1501 1502 1503 1504 1505 1507 1507 1507 1508 1509 1509 1510 1511 1511 1511 1511 1512 1512 1512 1511 1511 1511 1510 1509 1509 1508 1508 1507 1506 1504 1504 1502 1500 1499 1497
1483 1485 1487 1488 1490 1491 1492 1494 1495 1496 1497 1497 1499 1500 1501 1501 1500 1501 1502 1502 1503 1503 1504 1504 1503 1503 1503 1503 1504 1503 1502 1502 1501 1501 1500 1499 1498 1497 1496 1495 1493 1492 1490
1477 1480 1481 1482 1484 1486 1486 1487 1488 1489 1490 1491 1492 1492 1493 1494 1494 1493 1493 1494 1495 1495 1495 1495 1495 1495 1496 1496 1496 1495 1494 1493 1494 1493 1492 1491 1491 1490 1489 1487 1486 1484 1482
1470 1473 1475 1477 1478 1478 1479 1481 1481 1483 1483 1484 1484 1485 1485 1485 1486 1486 1487 1487 1487 1487 1487 1487 1487 1487 1487 1487 1487 1487 1486 1485 1485 1484 1484 1482 1482 1482 1481 1480 1479 1477 1476
1463 1465 1467 1469 1471 1472 1473 1473 1474 1475 1476 1476 1476 1476 1477 1477 1477 1477 1478 1479 1479 1479 1479 1479 1478 1478 1478 1478 1477 1477 1477 1476 1475 1475 1474 1473 1472 1472 1472 1471 1470 1469 1467
1456 1458 1460 1462 1463 1464 1465 1465 1466 1467 1467 1468 1468 1468 1468 1468 1469 1469 1469 1470 1470 1470 1469 1469 1469 1469 1469 1468 1468 1468 1467 1466 1466 1466 1466 1464 1463 1462 1462 1461 1460 1459 1458